EW3263 Weather Reports


Display with metric or nautical units.
time (UTC)temp
F
wind
direction
speed
MPH
gust
MPH
rain 1hr
in
rain 24hr
in
rain mn
in
humidity
%
barometer
mb
20260503021522 67 0.0 0.0 0.00 0.00 0.00 68 1016.9
20260503020018 68 0.0 0.0 0.00 0.00 0.00 67 1016.9
20260503014515 69 0.0 0.0 0.00 0.00 0.00 65 1016.9
20260503013009 70 0.0 0.0 0.00 0.00 0.00 64 1016.8
20260503011506 71 0.0 0.0 0.00 0.00 0.00 62 1016.8
20260503010100 72 0.0 0.0 0.00 0.00 0.00 61 1016.9
20260503004558 72 0.0 0.0 0.00 0.00 0.00 60 1016.7
20260503003052 74 0.0 0.0 0.00 0.00 0.00 58 1016.8
20260503001548 75 0.0 0.0 0.00 0.00 0.00 56 1016.7
20260503000046 75 0.0 0.0 0.00 0.00 0.00 55 1016.5
20260502234549 76 0.0 0.0 0.00 0.00 0.00 53 1016.6
20260502233034 76 0.0 0.0 0.00 0.00 0.00 54 1016.7
20260502231530 76 0.0 0.0 0.00 0.00 0.00 54 1016.7
20260502230026 76 0.0 0.0 0.00 0.00 0.00 53 1016.8
20260502224521 77 0.0 0.0 0.00 0.00 0.00 53 1016.9
20260502223017 77 0.0 0.0 0.00 0.00 0.00 51 1017.2
20260502221515 77 0.0 0.0 0.00 0.00 0.00 51 1017.6
20260502220012 77 0.0 0.0 0.00 0.00 0.00 51 1017.6
20260502214510 78 0.0 0.0 0.00 0.00 0.00 48 1017.8
20260502213109 78 0.0 0.0 0.00 0.00 0.00 48 1018.2
20260502211555 78 0.0 0.0 0.00 0.00 0.00 48 1018.1
20260502210050 77 0.0 0.0 0.00 0.00 0.00 51 1018.0
20260502204546 76 0.0 0.0 0.00 0.00 0.00 53 1017.8
20260502203042 75 0.0 0.0 0.00 0.00 0.00 53 1018.2
20260502201545 74 0.0 0.0 0.00 0.00 0.00 56 1018.4
20260502200034 74 0.0 0.0 0.00 0.00 0.00 57 1018.6
20260502194529 73 0.0 0.0 0.00 0.00 0.00 59 1018.6
20260502193025 72 0.0 0.0 0.00 0.00 0.00 60 1019.0
20260502191522 72 0.0 0.0 0.00 0.00 0.00 61 1019.0
20260502190016 71 0.0 0.0 0.00 0.00 0.00 63 1019.1
20260502184514 69 0.0 0.0 0.00 0.00 0.00 66 1019.3
20260502183007 68 0.0 0.0 0.00 0.00 0.00 69 1019.3
20260502181503 66 0.0 0.0 0.00 0.00 0.00 73 1019.4
20260502180109 64 0.0 0.0 0.00 0.00 0.00 75 1019.7
20260502163032 56 0.0 0.0 0.00 0.00 0.00 90 1020.6
20260502161529 56 0.0 0.0 0.00 0.00 0.00 90 1020.5
20260502151510 55 0.0 0.0 0.00 0.00 0.00 91 1020.4
20260502123024 52 0.0 0.0 0.00 0.00 0.00 92 1019.3
20260502121534 52 0.0 0.0 0.00 0.00 0.00 92 1019.2
20260502114509 53 0.0 0.0 0.00 0.00 0.00 92 1019.3
20260502113006 53 0.0 0.0 0.00 0.00 0.00 92 1019.3
20260502111501 53 0.0 0.0 0.00 0.00 0.00 92 1019.3
20260502110057 53 0.0 0.0 0.00 0.00 0.00 92 1019.2
20260502104553 52 0.0 0.0 0.00 0.00 0.00 92 1019.2
20260502103102 52 0.0 0.0 0.00 0.00 0.00 92 1019.1
20260502101544 51 0.0 0.0 0.00 0.00 0.00 90 1019.0
20260502091526 52 0.0 0.0 0.00 0.00 0.00 88 1018.8
20260502070047 54 0.0 0.0 0.00 0.00 0.00 88 1019.7
20260502064543 54 0.0 0.0 0.00 0.00 0.00 89 1019.7
20260502063045 55 0.0 0.0 0.00 0.00 0.00 89 1019.7
20260502061537 55 0.0 0.0 0.00 0.00 0.00 88 1019.8
20260502060029 55 0.0 0.0 0.00 0.00 0.00 88 1019.8
20260502054532 55 0.0 0.0 0.00 0.00 0.00 87 1019.8
20260502053020 56 0.0 0.0 0.00 0.00 0.00 87 1019.8
20260502051516 56 0.0 0.0 0.00 0.00 0.00 86 1019.9
20260502050012 56 0.0 0.0 0.00 0.00 0.00 84 1019.7
20260502044507 57 0.0 0.0 0.00 0.00 0.00 84 1019.7
20260502043003 57 0.0 0.0 0.00 0.00 0.00 84 1019.6
20260502041559 57 0.0 0.0 0.00 0.00 0.00 84 1019.5
20260502040054 58 0.0 0.0 0.00 0.00 0.00 83 1019.4
20260502034549 59 0.0 0.0 0.00 0.00 0.00 81 1019.4
20260502033048 59 0.0 0.0 0.00 0.00 0.00 80 1019.2
20260502031541 60 0.0 0.0 0.00 0.00 0.00 78 1019.1
20260502030036 61 0.0 0.0 0.00 0.00 0.00 77 1019.1
20260502024533 62 0.0 0.0 0.00 0.00 0.00 75 1019.0
20260502023028 63 0.0 0.0 0.00 0.00 0.00 73 1018.7